Flag for India Weather past 2 weeks in Fatehpur, Uttar Pradesh, India

Now
59 °F

Fog.


Feels Like: 59 °F
Forecast: 55 / 67 °F
Wind: No wind

Location: Lucknow / Amausi

Current Time: Jan 27, 2015 at 12:08:56 AM

Latest Report: Jan 26, 2015 at 11:00 PM


Visibility: 0 mi

Pressure: 30.09 "Hg

Humidity: 94%

Dew point: 57 °F

Location of FatehpurLocation

Historic Weather in Fatehpur — Graph

°F

Fatehpur temperature yesterday

Maximum temperature yesterday: 63 °F (at 3:00 PM)
Minimum temperature yesterday: 54 °F (at 6:30 AM)
Average temperature yesterday: 58 °F

Past Weeks' High & Low Weather Summary

 TemperatureHumidityPressure
High135 °F (Jan 24, 6:30 PM)100% (Jan 13, 3:00 AM)30.39 "Hg (Jan 13, 3:00 AM)
Low45 °F (Jan 13, 6:30 AM)8% (Jan 24, 6:30 PM)29.98 "Hg (Jan 13, 4:30 PM)
Average55 °F83%30.09 "Hg
* Reported Jan 11 10:00 PM — Jan 26 10:00 PM, Fatehpur, Weather by CustomWeather, © 2014

Note: Actual official high and low records may vary slightly from our data, if they occured in-between our weather recording intervals... More about our weather records

Advertising

Fatehpur weather history for previous 24 hours

 ConditionsComfort  
Time TempWeatherWind HumidityBarometerVisibility
10:00 PM
Jan 26
59 °FFog.No wind94%30.09 "Hg1 mi
9:00 PM61 °FFog.No wind88%30.09 "Hg1 mi
8:30 PM61 °FFog.No wind88%30.09 "Hg1 mi
8:00 PM61 °FFog.No wind94%30.09 "Hg1 mi
7:30 PM61 °FFog.No wind94%30.07 "Hg1 mi
7:00 PM61 °FFog.No wind94%30.07 "Hg1 mi
6:00 PM61 °FFog.2 mph94%30.07 "Hg1 mi
5:30 PM61 °FFog.2 mph94%30.04 "Hg1 mi
5:00 PM61 °FFog.2 mph88%30.04 "Hg1 mi
4:30 PM61 °FFog.2 mph88%30.04 "Hg1 mi
4:00 PM61 °FFog.2 mph88%30.04 "Hg1 mi
3:30 PM61 °FFog.2 mph88%30.04 "Hg1 mi
3:00 PM63 °FFog.2 mph83%30.07 "Hg1 mi
2:00 PM61 °FFog.2 mph88%30.07 "Hg1 mi
12:30 PM59 °FFog.2 mph88%30.12 "Hg1 mi
12:00 PM59 °FFog.2 mph88%30.12 "Hg1 mi
11:30 AM59 °FFog.5 mph94%30.12 "Hg1 mi
11:00 AM57 °FFog.5 mph94%30.12 "Hg1 mi
10:30 AM57 °FFog.No wind94%30.12 "Hg1 mi
10:00 AM57 °FFog.No wind94%30.12 "Hg1 mi
9:30 AM55 °FFog.2 mph94%30.12 "Hg1 mi
8:30 AM55 °FFog.2 mph100%30.09 "Hg1 mi
7:00 AM54 °FFog.2 mph100%30.09 "Hg1 mi
6:30 AM54 °FFog.2 mph100%30.07 "Hg1 mi
6:00 AM55 °FFog.2 mph94%30.07 "Hg0 mi
5:00 AM55 °FFog.2 mph94%30.07 "Hg0 mi
3:00 AM55 °FLight rain. Mostly cloudy.No wind94%30.07 "Hg1 mi
2:00 AM55 °FFog.No wind94%30.09 "Hg1 mi
1:00 AM55 °FLight rain. Mostly cloudy.2 mph94%30.09 "Hg1 mi
12:00 AM55 °FLight rain. Mostly cloudy.3 mph94%30.09 "Hg1 mi
Weather by CustomWeather, © 2014

See weather overviewHow to use our weather pages